loading
|

STARLINK-32357, 61009

Orbit data source: Space-Track

STARLINK-32357, 61009 is a payload satellite owned by SpaceX/Seattle (US) in LEO that was launched on Thu, 05 Sep 2024 UTC via an FALCON 9 launch vehicle from the Air Force Eastern Test Range (AFETR). Payloads include a variety of satellites, spacecraft, and rockets equipped with specific instruments for various scientific and technological missions. These include communications satellites like Starlink; space stations such as the ISS; scientific satellites like the Hubble; Earth observation satellites from companies like Planet Labs, Umbra, and HawkEye 360; GPS; miniature CubeSats for education and research; and military/defense satellites.

Loading next visibility...
Next conjunction unknown
Loading greatness...
STARLINK-32357 details
Identifier
61009, 2024-158V
Orbit
LEO
Last TLE update9 hours ago
Origin
Flag of USSpaceX/Seattle (US)
ManufacturerSpaceX/Seattle
MissionOperational spacecraft
Bus & MotorSTARLINK V2M, Unknown motor
Mass750 kg wet, ~700 kg dry
Launch date (UTC)
2024-09-05 (1 month ago)
Launch vehicle
FALCON 9
Launch site
Air Force Eastern Test Range (AFETR)
Object type
Payload
Rocket body
Debris
Shape & HBRUnknown
Radar Cross SectionLarge (>1 m²)

Expand to show TLE details & history

TLE from 9 hours ago
0 STARLINK-32357
1 61009U 24158V   24288.25543557 -.00005697  00000-0 -46210-4 0  9992
2 61009  53.1592 283.4957 0001933 131.9207 228.1975 15.67577885  7268
Epoch: 2024-10-14T06:07Z
Definitive object data (Epoch: 2024-10-14T06:07:49.633Z)
Latitude-0.00001°
Longitude168.25369°
Altitude367.618 km
Speed7.69 km/s
True Right ascension18h 53m 58s
True Declination0° 00' 00"
Sunlit
Object was in daylight at TLE epoch
Predictive object data (real-time)
Latitude-23.37986°
Longitude147.61011°
Altitude373.794 km
Speed7.685 km/s
Apparent Right ascension19h 21m 45s
Apparent Declination-35° 26' 01"
Sunlit
Object is in daylight
Predictive observer data (real-time)
Local Sidereal Time09:45:17
Azimuth92.527° ESE
Elevation-61.441°
Doppler factor1
Orbital elements
Apogee367.399 km
Perigee364.792 km
Semi-major axis6,744.233 km
Eccentricity0.0001933
Inclination53.1592°
RAAN283.4957°
Arg. of periapsis131.9207°
True anomaly228.18099°
Mean anomaly228.1975°
Eccentric anomaly228.18925°
Mean motion3.91872 °/min
BSTAR-0.00004621
Period91.87 mins
No data available

STARLINK-32357 Visibility forecast

Observer location: 39.9160978°, -105.1181434

Span
Click to sort rows by Start time (UTC) header in descending order
Start Az.
Max El. time (UTC)
Max El. Az.
Max El.
End time (UTC)
End Az.
4 mins2024-10-15 02:12:08.109Z205.135° SW2024-10-15 02:14:08.109Z132.092° SE36.424°2024-10-15 02:16:08.109Z65.771° ENE